Погода в Вилюйске

Погода в Вилюйске : погода сейчас, прогноз погоды и архив. Всё, что Вы хотите узнать о погоде в Вилюйске!

Хотите узнать прогноз погоды в Вилюйске? Тогда Вам сюда: Погода в Вилюйске

Поиск расширенной информации на нашем сайте:

Другие новости

Новости СМИ2

Главная страница сайта

Новости сайта

03.07.2017

Напоминаем, что на нашем специализированном сайте Метеоцентр.Азия вы можете получить высокодетализированные автоматические прогнозы погоды по пунктам России, СНГ и мира в авиационном формате (включающие направление и скорость ветра, видимость, явления погоды, количество и форму облачности, нижнюю и верхнюю границу облачности).


Погода в Вилюйске - сегодня

Время (UTC), дата Ветер
(°,м/с) 
Видим.   Явления Облачность Т
(°С)
Тd
(°С)
f(%) Тe
(°С)
Pmin
(гПа)
dP
(гПа)
Po
(мм)
O2
(г/м3)
Тmin Tmax R s Состояние
почвы
21 14.06.18 тихо ()   20000 м    8/3 600 м средняя, верхняя 
[Sc|Ac trans|Ci fib]
+15.2 +7.6 60 +15  1015.1  751  286           
00 15.06.18 тихо ()   20000 м    6/4 600 м средняя, верхняя 
[Cu hum|Ac trans|Ci fib]
+21 +8 43 +21  1014.9  0.1  752  280  +14.3        сухая 
03 15.06.18 290 (З) 20000 м    6/5 600 м верхняя 
[Cu med, cong|Ci fib]
+25.4 +8.1 33 +25  1014.3  -0.4  751  276           
06 15.06.18 280 (З) 20000 м    6/6 600 м 
[Cu med, cong]
+27.6 +8.6 30 +28  1012.2  -2  750  273           
09 15.06.18 260 (З) 20000 м    6/6 600 м 
[Cu med, cong]
+28.3 +6.1 24 +28  1011.3  -0.9  749  273           
12 15.06.18 270 (З) 20000 м    8/0 верхняя 
[Ci fib]
+26.9 +6.8 28 +27  1010.5  -0.8  748  273    +29       
15 15.06.18 290 (З) 20000 м    8/3 600 м средняя, верхняя 
[Sc|Ac trans|Ci fib]
+19.7 +6.1 41 +21  1010.8  -0.1  748  280           
18 15.06.18 290 (З) 20000 м    8/3 600 м средняя 
[Sc|Ac trans]
+16.7 +11 69 +21  1010.9  748  282           
21 15.06.18 320 (СЗ) 20000 м    3/0 средняя 
[Ac trans]
+16.2 +9 62 +18  1010.4  -0.5  748  283           
00 16.06.18 350 (С) 20000 м    1/0 средняя 
[Ac trans]
+22.3 +4.6 31 +22  1009.8  -0.3  748  278    +15.7      сухая 
03 16.06.18 350 (С) 20000 м    3/0 верхняя 
[Ci fib]
+24.6 +3.8 26 +25  1008.5  -1.2  747  275           
06 16.06.18 330 (СЗ) 20000 м    3/0 верхняя 
[Ci fib]
+25.8 +5 26 +26  1006.4  -2.1  745  274           
09 16.06.18 360 (С) 20000 м    3/0 верхняя 
[Ci fib]
+25.7 +5.9 28 +26  1004.5  -1.9  744  273           
15 16.06.18 320 (СЗ) 20000 м    5/0 верхняя 
[Ci fib]
+14.8 +0.2 37 +16  1004.6  -0.2  744  284           
18 16.06.18 350 (С) 20000 м    3/0 верхняя 
[Ci fib]
+12.8 +5.3 60 +14  1004.2  -0.5  743  285           
21 16.06.18 020 (С) 20000 м    4/0 верхняя 
[Ci fib]
+13.6 +6.1 60 +14  1004.1  743  284           
00 17.06.18 330 (СЗ) 20000 м    3/0 средняя 
[Ac trans]
+15.3 +3.4 45 +16  1003.9  -0.1  743  283  +11.9        сухая 
03 17.06.18 350 (С) 20000 м    5/5 600 м 
[Cu hum]
+17.3 +2.7 38 +18  1003.4  -0.4  743  281           
06 17.06.18 330 (СЗ) 20000 м    8/8 600 м 
[Cu hum]
+18.5 +2.1 33 +19  1003.3  -0.1  743  280           
09 17.06.18 030 (СВ) 5{10}  20000 м    8/8 600 м 
[Cu hum]
+16.4 +0.4 34 +16  1003.8  0.4  743  282           
12 17.06.18 020 (С) 2{11}  20000 м    8/8 600 м 
[Sc]
+14.6 +1.9 42 +15  1004.1  0.2  743  284    +20.3       
15 17.06.18 280 (З) 20000 м    3/3 600 м средняя 
[Sc|Ac trans]
+12.1 +3 54 +12  1003.5  -0.5  743  286           
18 17.06.18 тихо ()   20000 м    6/4 600 м средняя 
[Sc|Ac trans]
+10 +4.6 69 +10  1003.5  -0.3  743  288           
21 17.06.18 310 (СЗ) 20000 м    6/3 600 м средняя 
[Sc|Ac trans]
+11.2 +5.6 68 +12  1002.8  -0.6  742  286           
00 18.06.18 290 (З) 20000 м    8/3 600 м средняя, верхняя 
[Cu hum|Ac trans|Ci fib]
+15.8 +7.6 58 +17  1002.5  -0.1  742  281  +9.8        сухая 
Время (UTC), дата Ветер
(°,м/с) 
Видим.   Явления Облачность Т
(°С)
Тd
(°С)
f(%) Тe
(°С)
Pmin
(гПа)
dP
(гПа)
Po
(мм)
O2
(г/м3)
Тmin Tmax R s Состояние
почвы

Для получения пояснительной информации подведите курсор к названию столбца.

ПОГОДА в Вилюйске - архив

Всё, что Вы хотите узнать о погоде в Вилюйске - удобно и подробно!

Выберите нужную дату (начиная с 1 января 2015* года) и нажмите кнопку "Найти".
Будут отображены архивные сводки погоды по пункту Вилюйск, начиная с указанной даты.


Отображать данные в формате CSV (для использования в таблицах Excel)


Внимание! Наш архив погоды предназначен исключительно для личного некоммерческого использования в познавательных целях. Если Вам необходимы официальные справки о состоянии погоды (для производственных, юридических, коммерческих и т.п. целей), обращайтесь в органы Росгидромета.

*Примечание: данная дата относится к архиву по метеостанциям СССР (Россия, СНГ, Балтия).
Архив по метеостанциям Зарубежной Европы и Азии (кроме Китая) хранится 10 дней, по другим регионам земного шара (Китай, Африка, Америка, Австралия, Океания) - 1 день.

Вилюйск - район местоположения метеостанции


Название, широта, долгота, высота метеостанции:
Вилюйск 63.8°ш. 121.6°д. 111 м над ур. моря [Российская Федерация]

Дополнительная информация

В oтличие oт бoльшинства пoгoдных сайтoв мы публикуем пoдрoбную метеoинфoрмацию в детальнoм прoфессиoнальнoм фoрмате.

Характеристики температуры и влажнoсти вoздуха измеряются на высoте 2 м в тени вдали oт зданий и деревьев.
Скoрoсть ветра измеряется на высoте 10 м (на урoвне рoста челoвека скoрoсть ветра ниже в 1.5-2 раза). Если метеoстанция нахoдится в гoрoде или в лесу, тo скoрoсть ветра занижена на 2-4 м/с пo сравнению с oткрытым местoм. Скoрoсть ветра над акватoриями крупных рек и oзёр, а также на вершинах хoлмoв на 2-5 м/с выше, чем в oбычных услoвиях.
Атмoсфернoе давление в разных тoчках местнoсти мoжет значительнo oтличаться oт давления на метеoстанции, в зависимoсти oт услoвий рельефа (при пoдъёме на 10 м давление пoнижается примернo на 1 мм рт.ст.).